ARIANE 2 DEB, 27046

Orbit data source: Space-Track

ARIANE 2 DEB, 27046 is space debris in HEO originally from a launch on Fri, 27 Jan 1989 UTC launched from the French Guiana (FRGUI). Debris objects in space refer to the collection of defunct objects orbiting the Earth. Examples of debris include non-operational satellites, rocket bodies, and fragments generated from explosions, collisions, or faulty payload assembly.

Loading next visibility...
Identifier
27046, 1989-006AB
Orbit
HEO
Last TLE update
11 hours ago
Origin
Manufacturer
EADS/LV
Mission
Spacecraft
Bus & Motor
Unknown
Mass
Unknown
Launch date (UTC)
1989-01-27 (36 years ago)
Launch vehicle
Unknown
Launch site
French Guiana (FRGUI)
Object type
Payload
Rocket body
Debris
Shape & HBR
Unknown
Radar Cross Section
Medium (>0.1 m² and <1 m²)

Expand to show TLE details & history

TLE from 11 hours ago
0 ARIANE 2 DEB
1 27046U 89006AB  25181.92280090 -.00000031  00000-0  34357-2 0  9998
2 27046   7.6622 116.6365 7096116  12.3919 265.6340  2.24299813103861
Epoch: 2025-06-30T22:08Z
TLE epoch observation values (Epoch: 2025-06-30T22:08:49.997Z)
Latitude
-4.46469°
Longitude
80.59128°
Altitude
28,756.58 km
Speed
2.554 km/s
True Right ascension
22h 08m 06s
True Declination
-4° 27' 33"
Sunlit
Object was in daylight at epoch
Visualization orbit readout
Latitude
-4.82158°
Longitude
83.76816°
Altitude
27,235.776 km
Speed
2.747 km/s
Apparent Right ascension
22h 36m 38s
Apparent Declination
-13° 19' 37"
Sunlit
Object is in daylight
Visualization observer readout
Local Sidereal Time
20:43:58
Azimuth
147.722° SSE
Elevation
30.666°
Doppler factor
1
Orbital elements
Apogee altitude
35,775.45 km
Perigee altitude
781.918 km
Semi-major axis
24,656.821 km
Eccentricity
0.70961
Inclination
7.6622°
RAAN
116.6365°
Arg. of periapsis
12.3919°
True anomaly
Unknown
Mean anomaly
265.634°
Eccentric anomaly
Unknown
Mean motion
0.56058 °/min
Orbital period
642.19 mins
BSTAR
0.0034357
Loading maneuver chart data...
Loading SW <> Apogee altitude chart data...
Loading historical data...
Loading historical data...
Loading historical data...
Loading historical data...
Loading historical data...
Loading historical data...
Loading historical data...

ARIANE 2 DEB Visibility forecast

Observer location: undefined°, undefined°

Span
Click to sort rows by Start time (UTC) header in descending order
Start Az.
Max El. time (UTC)
Max El. Az.
Max El.
End time (UTC)
End Az.
102 mins2025-07-01 09:05:44.640Z147.735° SSE2025-07-01 09:05:44.640Z147.735° SSE27.012°2025-07-01 10:47:44.640Z135.057° SSE
|